Morgantown, WV

7:55 AM EDT on March 27, 2017 (GMT -0400)
Morgantown Municipal-Hart

Weather History for KMGW - December, 2010

Change the Weather History Date:

Tuesday, December 28, 2010

  Actual Average Record
Temperature  
Mean Temperature 26 °F 32 °F  
Max Temperature 33 °F 40 °F 72 °F (1982)
Min Temperature 19 °F 25 °F -2 °F (1950)
Degree Days  
Heating Degree Days 39 33  
Month to date heating degree days 1091 838  
Since 1 July heating degree days 2044 1886  
Cooling Degree Days 0 0  
Month to date cooling degree days 0 0  
Year to date cooling degree days 1195 814  
Moisture  
Dew Point 15 °F    
Average Humidity 62    
Maximum Humidity 77    
Minimum Humidity 47    
Precipitation  
Precipitation 0.00 in 0.09 in 0.55 in (1983)
Month to date precipitation 1.15 2.66  
Year to date precipitation 39.34 41.58  
Sea Level Pressure  
Sea Level Pressure 30.18 in    
Wind  
Wind Speed 8 mph (SW)    
Max Wind Speed 14 mph    
Max Gust Speed 21 mph    
Visibility 10 miles    
Events      
T = Trace of Precipitation, MM = Missing Value Source: NWS Daily Summary

Daily Weather History Graph

Daily Weather History Graph

Search for Another Location

Airport or City:

Trip Planner

Search our weather history database for the weather conditions in past years. The results will help you decide how hot, cold, wet, or windy it might be!

Date:

Astronomy

Dec. 28, 2010 Rise Set
Actual Time 7:39 AM EST 5:03 PM EST
Civil Twilight 7:09 AM EST 5:33 PM EST
Nautical Twilight 6:35 AM EST 6:07 PM EST
Astronomical Twilight 6:02 AM EST 6:39 PM EST
Moon 12:37 AM EST (12/28) 11:59 AM EST (12/28)
Length of Visible Light 10h 24m
Length of Day
9h 23m
Last Quarter, 44% of the Moon is Illuminated
Dec 28
Last Quarter
Jan 4
New
Jan 12
First Quarter
Jan 19
Full
Jan 26
Last Quarter

Hourly Weather History & Observations

Time (EST) Temp. Windchill Dew Point Humidity Pressure Visibility Wind Dir Wind Speed Gust Speed Precip Events Conditions
12:53 AM 19.9 °F 11.1 °F 12.0 °F 71% 30.21 in 10.0 mi SW 6.9 mph - N/A   Overcast
1:53 AM 19.0 °F 11.1 °F 10.9 °F 71% 30.21 in 10.0 mi SW 5.8 mph - N/A   Overcast
2:53 AM 19.9 °F 9.3 °F 12.0 °F 71% 30.23 in 10.0 mi SW 9.2 mph 16.1 mph N/A   Overcast
3:27 AM 19.4 °F 10.4 °F 12.2 °F 74% 30.17 in 10.0 mi SW 6.9 mph - N/A   Overcast
3:53 AM 19.9 °F 9.3 °F 14.0 °F 78% 30.22 in 10.0 mi SSW 9.2 mph 16.1 mph N/A   Overcast
4:53 AM 21.0 °F 12.4 °F 15.1 °F 78% 30.22 in 10.0 mi Variable 6.9 mph - N/A   Overcast
5:53 AM 21.9 °F 11.7 °F 16.0 °F 78% 30.23 in 10.0 mi SW 9.2 mph - N/A   Overcast
6:15 AM 21.2 °F 11.7 °F 15.8 °F 80% 30.18 in 10.0 mi SW 8.1 mph 16.1 mph N/A   Overcast
6:53 AM 21.9 °F 11.7 °F 16.0 °F 78% 30.23 in 10.0 mi SSW 9.2 mph - N/A   Overcast
7:53 AM 23.0 °F 13.9 °F 16.0 °F 74% 30.25 in 10.0 mi SSW 8.1 mph 16.1 mph N/A   Overcast
8:53 AM 24.1 °F 15.2 °F 16.0 °F 71% 30.25 in 10.0 mi SW 8.1 mph 17.3 mph N/A   Overcast
9:53 AM 25.0 °F 14.8 °F 17.1 °F 72% 30.25 in 10.0 mi SW 10.4 mph 17.3 mph N/A   Overcast
11:53 AM 27.0 °F 16.7 °F 17.1 °F 66% 30.19 in 10.0 mi SSW 11.5 mph 16.1 mph N/A   Overcast
12:14 PM 28.4 °F 21.2 °F 17.6 °F 64% 30.12 in 10.0 mi Variable 6.9 mph - N/A   Partly Cloudy
12:53 PM 30.0 °F 20.5 °F 18.0 °F 61% 30.16 in 10.0 mi SW 11.5 mph - N/A   Clear
1:53 PM 32.0 °F 24.8 °F 17.1 °F 54% 30.13 in 10.0 mi SW 8.1 mph - N/A   Clear
2:53 PM 33.1 °F 27.7 °F 17.1 °F 52% 30.13 in 10.0 mi Variable 5.8 mph - N/A   Clear
3:53 PM 33.1 °F 26.9 °F 16.0 °F 50% 30.13 in 10.0 mi SW 6.9 mph - N/A   Clear
4:53 PM 30.9 °F 27.5 °F 15.1 °F 52% 30.14 in 10.0 mi SW 3.5 mph - N/A   Clear
5:53 PM 30.0 °F 24.1 °F 15.1 °F 54% 30.14 in 10.0 mi SW 5.8 mph - N/A   Clear
6:53 PM 28.9 °F 22.8 °F 16.0 °F 58% 30.15 in 10.0 mi SSW 5.8 mph - N/A   Partly Cloudy
7:53 PM 30.0 °F 23.2 °F 16.0 °F 56% 30.15 in 10.0 mi SSW 6.9 mph - N/A   Overcast
8:53 PM 28.9 °F 21.9 °F 16.0 °F 58% 30.14 in 10.0 mi SW 6.9 mph - N/A   Mostly Cloudy
10:53 PM 28.0 °F 22.8 °F 16.0 °F 61% 30.17 in 10.0 mi Variable 4.6 mph - N/A   Clear
11:53 PM 27.0 °F 20.5 °F 16.0 °F 63% 30.17 in 10.0 mi SSW 5.8 mph - N/A   Mostly Cloudy